Погода в Криушах

Россия / Ульяновская область     54°06′16″N   48°31′54″E
темп.,
°C
ветер,
м/с
пор.,
м/с
влажн.,
%
обл.,
%
осадки,
мм/ч
давл.,
гПа
погр.,
м
21 апреля, ср
ср2101:00+4юв71650100 0.0 1024641
04:00+3юв91851100 0.0 1023684
07:00+3ююв91963100 0.4 1023751
10:00+3юв101964100 0.8 1022793
13:00+3ююв91965100 0.1 1022776
16:00+2ююв81883100 0.5 1022746
19:00+2ююв81691100 0.5 1021699
22:00+2ююв71594100 0.6 1021577
22 апреля, чт
чт2201:00+3ю61396100 0.1 1021487
04:00+3ю499797 0.1 1022330
07:00+4ю4997100 0.0 1023287
10:00+6ю4890100 0.0 1024347
13:00+10ю577018 0.0 1023738
16:00+13ю575990 0.1 10231368
19:00+11ю486985 0.4 1023584
22:00+8ю5117693 0.8 1024356
23 апреля, пт
пт2301:00+6ю4983100 0.0 1024220
04:00+4ю35925 0.0 1025119
07:00+5ююв35915 0.0 1025141
10:00+9ююв34715 0.0 1025439
13:00+12вюв336094 0.0 10241025
16:00+12вюв4462100 0.0 1023856
19:00+10вюв3670100 0.0 1022306
22:00+8вюв2280100 0.0 102128
24 апреля, сб
сб2401:00+7вюв1184100 0.0 101916
04:00+6ююв2380100 0.0 101761
07:00+7юв2486100 0.0 1016161
10:00+7ю3485100 0.0 1015448
13:00+9ююв327376 0.1 1013739
16:00+10ююв226866 0.2 1012808
19:00+9юв477390 0.0 1011438
22:00+8ююв4128299 0.1 1010526
25 апреля, вс
вс2501:00+8ю41187100 0.9 1007542
04:00+5з7128527 3.7 1008716
07:00+5зюз6118016 0.0 1010737
10:00+8зюз695447 0.0 10111469
13:00+10зюз6938100 0.0 10122642
16:00+10зюз7949100 0.3 10131728
19:00+7зюз476499 0.6 1014902
22:00+6зюз5106788 0.9 1015474